Location: Dal�� Lhota
(48.7500°N, 14.0167°E)
Time: 07:16:51
(UTC+00:00)

Explorer 7 - Pass Details

Date: 07 August 2021
Orbit: 484 x 676 km, 50.3° (Epoch: 21 September)

Event Time Altitude Azimuth Distance (km) Brightness Sun altitude
Rises 02:21:00 0° 233° (SW) 2,537 - -12.3°
Reaches altitude 10° 02:23:11 10° 228° (SW) 1,661 - -12.0°
Exits shadow 02:24:22 19° 221° (SW) 1,212 7.9 -11.9°
Maximum altitude 02:26:48 49° 153° (SSE) 637 7.0 -11.6°
Drops below altitude 10° 02:30:31 10° 78° (ENE) 1,708 10.4 -11.1°
Sets 02:32:47 0° 73° (ENE) 2,618 11.7 -10.8°
